Regional Weather Roundup
Issued by NWS

Home | Current Version | Previous Version | Graphics & Text | Print | Product List | Glossary On
Versions: 1 2 3 4 5 6 7 8 9 10 11 12 13 14 15 16 17 18 19 20 21 22 23 24 25 26 27 28 29 30 31 32 33 34 35 36 37 38 39 40 41 42 43 44 45 46 47 48 49 50
000
ASUS43 KBIS 291502
RWRND

NORTH DAKOTA REGIONAL WEATHER ROUNDUP
NATIONAL WEATHER SERVICE BISMARCK ND
1000 AM CDT FRI APR 29 2016

NOTE: "FAIR" INDICATES FEW OR NO CLOUDS BELOW 12,000 FEET WITH NO
SIGNIFICANT WEATHER AND/OR OBSTRUCTIONS TO VISIBILITY.


NDZ001>003-009>011-017-291600-
NORTHWEST NORTH DAKOTA

CITY           SKY/WX    TMP DP  RH WIND       PRES   REMARKS
WILLISTON      SUNNY     50  27  40 VRB7      30.18R
MINOT          SUNNY     50  21  32 VRB5      30.21S
MINOT AFB      SUNNY     46  22  38 E6        30.21R
$$

NDZ018>021-031>035-040>046-291600-
SOUTHWEST NORTH DAKOTA

CITY           SKY/WX    TMP DP  RH WIND       PRES   REMARKS
BISMARCK       CLOUDY    47  32  56 E7        30.20S
DICKINSON      CLOUDY    44  29  55 E12       30.15R
GARRISON         N/A     50  27  40 E8        30.19S
HETTINGER ARPT CLOUDY    43  36  76 CALM      30.16R
$$

NDZ004>008-012>016-024-026-027-054-291600-
NORTHEAST NORTH DAKOTA

CITY           SKY/WX    TMP DP  RH WIND       PRES   REMARKS
GRAND FORKS    PTSUNNY   50  33  52 NE8       30.23R
GRND FRKS AFB  MOSUNNY   48  31  52 NE7       30.23R
DEVILS LAKE    MOSUNNY   49  31  49 E10       30.23R
$$

NDZ022-023-025-028>030-036>039-047>053-291600-
SOUTHEAST NORTH DAKOTA

CITY           SKY/WX    TMP DP  RH WIND       PRES   REMARKS
FARGO          SUNNY     51  38  60 VRB3      30.19S
JAMESTOWN      SUNNY     50  32  50 NE7       30.19R
$$





USA.gov is the U.S. government's official web portal to all federal, state and local government web resources and services.